Volver al catálogo

LEMUR-2-DELOITTE-4

ActivoSSO
NORAD 69934·PAYLOAD·🇺🇸 United States

Lanzado Jul 7, 2026 desde Vandenberg Space Force Base

Loading…

Próximos Pases (próximas 24 horas)

TLE

ActualizadoSource: Space-Track

Época: Sep 14, 2026, 11:02 UTC

1 69934U 26156BT  26257.46041658  .00001804  00000-0  18015-3 0  9998
2 69934  97.7467 156.8486 0008149 297.0880  62.9508 14.92723828 10318

Sigue LEMUR-2-DELOITTE-4 en tiempo real con AllMySat

Download on the App Store